Location: Newark
(52.3500°N, 175.9667°E)
Time: 15:01:33
(UTC+00:00)

Vanguard 1 - Visible Passes

Search period start: 23 April 2021 00:00
Search period end: 03 May 2021 00:00
Orbit: 648 x 3834 km, 34.3° (Epoch: 22 April)

Date Brightness Start Highest point End Pass type
(mag) Time Alt. Az. Time Alt. Az. Time Alt. Az.
23 Apr 14.1 09:14:13 10° WSW 09:23:17 14° SW 09:32:06 10° SSW visible
26 Apr 14.1 07:50:31 10° W 08:02:58 19° SW 08:15:55 10° S visible
27 Apr 14.3 08:14:32 10° WSW 08:23:06 14° SW 08:31:55 10° SSW visible
